Location: Neuvy Saint Sepulchre
(46.5953°N, 1.8122°E)
Time: 09:33:40
(UTC+02:00)

ISS - Pass Details

Date: 11 July 2021
Orbit: 419 x 421 km, 51.6° (Epoch: 04 August)

Event Time Altitude Azimuth Distance (km) Brightness Sun altitude
Rises 04:26:44 0° 292° (WNW) 2,371 -0.1 -13.6°
Reaches altitude 10° 04:28:55 10° 301° (WNW) 1,505 -1.0 -13.4°
Maximum altitude 04:32:08 39° 12° (NNE) 643 -2.3 -13.0°
Drops below altitude 10° 04:35:20 10° 83° (E) 1,501 -0.3 -12.7°
Sets 04:37:30 0° 92° (E) 2,363 0.6 -12.5°
